BADR-5

Last updated on Tue Sep 22 2026 00:03:11 GMT+0000 (Coordinated Universal Time)

1 36592U 10025A 26264.13876247 .00000150 00000+0 00000+0 0 9995 2 36592 0.0455 125.9266 0007777 88.5057 226.0692 1.00269748 54174
UTC large
Height (km)
Speed (km/s)
/
Latitude / Longitude
Inclination (degrees)
Orbital Period (minutes)
Azimuth
Elevation
Range (km)
Doppler Factor

Next 0 passes for location: London (51.5072 / 0.1276)

No passes found over London.
BADR-5